Melfa, VA

8:12 PM EST on February 27, 2017 (GMT -0500)
Accomack County

Weather History for KMFV - November, 2012

Change the Weather History Date:

Friday, November 23, 2012

  Actual Average (KWAL) Record (KWAL)
Temperature  
Mean Temperature 48 °F -  
Max Temperature 62 °F 54 °F 77 °F (1992)
Min Temperature 35 °F 37 °F 22 °F (2008)
Degree Days  
Heating Degree Days 16    
Moisture  
Dew Point 41 °F    
Average Humidity 75    
Maximum Humidity 100    
Minimum Humidity 27    
Precipitation  
Precipitation 0.00 in - - ()
Sea Level Pressure  
Sea Level Pressure 29.96 in    
Wind  
Wind Speed 4 mph (SW)    
Max Wind Speed 16 mph    
Max Gust Speed 21 mph    
Visibility 6 miles    
Events Fog    
Averages and records for this station are not official NWS values.
T = Trace of Precipitation, MM = Missing Value Source: NWS Daily Summary

Daily Weather History Graph

Daily Weather History Graph

Search for Another Location

Airport or City:

Trip Planner

Search our weather history database for the weather conditions in past years. The results will help you decide how hot, cold, wet, or windy it might be!

Date:

Astronomy

Nov. 23, 2012 Rise Set
Actual Time 6:51 AM EST 4:47 PM EST
Civil Twilight 6:23 AM EST 5:15 PM EST
Nautical Twilight 5:51 AM EST 5:47 PM EST
Astronomical Twilight 5:19 AM EST 6:18 PM EST
Moon 1:56 PM EST (11/23) 2:13 AM EST (11/23)
Length of Visible Light 10h 52m
Length of Day
9h 55m
Waxing Gibbous, 79% of the Moon is Illuminated
Nov 23
Waxing Gibbous
Nov 28
Full
Dec 6
Last Quarter
Dec 13
New
Dec 20
First Quarter

Hourly Weather History & Observations

Time (EST) Temp. Windchill Dew Point Humidity Pressure Visibility Wind Dir Wind Speed Gust Speed Precip Events Conditions
12:15 AM 42.8 °F - 39.2 °F 87% 30.14 in 0.2 mi Calm Calm - N/A Fog Fog
12:36 AM 42.8 °F 41.1 °F 39.2 °F 87% 30.13 in 0.5 mi NNE 3.5 mph - N/A Fog Fog
12:55 AM 42.8 °F - 39.2 °F 87% 30.12 in 0.5 mi Calm Calm - N/A Fog Fog
1:15 AM 41.0 °F 39.0 °F 39.2 °F 93% 30.12 in 0.2 mi North 3.5 mph - N/A Fog Fog
1:35 AM 39.2 °F - 39.2 °F 100% 30.12 in 0.2 mi Calm Calm - N/A Fog Fog
1:55 AM 39.2 °F - 37.4 °F 93% 30.12 in 0.2 mi Calm Calm - N/A Fog Fog
2:16 AM 39.2 °F - 37.4 °F 93% 30.12 in 0.2 mi Calm Calm - N/A Fog Fog
2:35 AM 37.4 °F - 35.6 °F 93% 30.11 in 0.2 mi Calm Calm - N/A Fog Fog
2:55 AM 37.4 °F 34.9 °F 35.6 °F 93% 30.10 in 0.2 mi North 3.5 mph - N/A Fog Fog
3:15 AM 37.4 °F - 35.6 °F 93% 30.10 in 0.2 mi Calm Calm - N/A Fog Fog
3:35 AM 37.4 °F 34.9 °F 35.6 °F 93% 30.09 in 0.2 mi North 3.5 mph - N/A Fog Fog
3:55 AM 37.4 °F - 35.6 °F 93% 30.09 in 0.2 mi Calm Calm - N/A Fog Fog
4:15 AM 37.4 °F - 35.6 °F 93% 30.09 in 0.2 mi Calm Calm - N/A Fog Fog
4:35 AM 37.4 °F - 35.6 °F 93% 30.09 in 0.2 mi Calm Calm - N/A Fog Fog
4:55 AM 37.4 °F - 35.6 °F 93% 30.09 in 0.2 mi Calm Calm - N/A Fog Fog
5:15 AM 37.4 °F 34.9 °F 35.6 °F 93% 30.09 in 0.2 mi NW 3.5 mph - N/A Fog Fog
5:35 AM 35.6 °F 32.8 °F 35.6 °F 100% 30.09 in 0.5 mi West 3.5 mph - N/A Fog Fog
5:55 AM 37.4 °F 34.9 °F 35.6 °F 93% 30.09 in 0.2 mi WNW 3.5 mph - N/A Fog Fog
6:17 AM 37.4 °F 33.8 °F 35.6 °F 93% 30.09 in 0.2 mi WNW 4.6 mph - N/A Fog Fog
6:35 AM 39.2 °F - 37.4 °F 93% 30.08 in 0.2 mi Calm Calm - N/A Fog Fog
6:55 AM 39.2 °F - 37.4 °F 93% 30.08 in 0.2 mi Calm Calm - N/A Fog Fog
7:35 AM 39.2 °F - 37.4 °F 93% 30.09 in 0.2 mi Calm Calm - N/A Fog Fog
7:55 AM 41.0 °F - 39.2 °F 93% 30.08 in 0.2 mi Calm Calm - N/A Fog Fog
8:15 AM 42.8 °F - 39.2 °F 87% 30.07 in 0.2 mi Calm Calm - N/A Fog Fog
8:35 AM 42.8 °F - 41.0 °F 93% 30.07 in 0.2 mi Calm Calm - N/A Fog Fog
8:55 AM 44.6 °F - 42.8 °F 93% 30.07 in 0.2 mi Calm Calm - N/A Fog Fog
9:15 AM 44.6 °F - 42.8 °F 93% 30.05 in 0.2 mi Calm Calm - N/A Fog Fog
9:35 AM 46.4 °F - 44.6 °F 93% 30.06 in 0.2 mi Calm Calm - N/A Fog Fog
9:55 AM 46.4 °F 44.3 °F 44.6 °F 93% 30.06 in 0.2 mi West 4.6 mph - N/A Fog Fog
10:15 AM 48.2 °F - 46.4 °F 93% 30.06 in 0.2 mi Calm Calm - N/A Fog Fog
10:35 AM 48.2 °F - 46.4 °F 93% 30.05 in 7.0 mi Calm Calm - N/A   Overcast
10:55 AM 50.0 °F - 48.2 °F 94% 30.03 in 7.0 mi West 4.6 mph - N/A   Mostly Cloudy
11:15 AM 51.8 °F - 48.2 °F 88% 30.01 in 10.0 mi WSW 3.5 mph - N/A   Scattered Clouds
11:35 AM 53.6 °F - 51.8 °F 94% 29.99 in 10.0 mi SSW 5.8 mph - N/A   Clear
11:55 AM 55.4 °F - 46.4 °F 72% 29.97 in 10.0 mi SSW 8.1 mph - N/A   Clear
12:15 PM 57.2 °F - 44.6 °F 63% 29.96 in 10.0 mi SSW 4.6 mph - N/A   Clear
12:35 PM 59.0 °F - 42.8 °F 55% 29.95 in 10.0 mi SSW 6.9 mph - N/A   Clear
12:55 PM 60.8 °F - 39.2 °F 45% 29.94 in 10.0 mi SW 6.9 mph - N/A   Clear
1:15 PM 60.8 °F - 35.6 °F 39% 29.93 in 10.0 mi SW 9.2 mph - N/A   Clear
1:35 PM 62.6 °F - 33.8 °F 34% 29.92 in 10.0 mi WSW 9.2 mph - N/A   Clear
1:55 PM 62.6 °F - 28.4 °F 27% 29.91 in 10.0 mi SW 11.5 mph - N/A   Clear
2:16 PM 62.6 °F - 28.4 °F 27% 29.90 in 10.0 mi SW 8.1 mph - N/A   Clear
2:36 PM 60.8 °F - 44.6 °F 55% 29.88 in 10.0 mi South 5.8 mph - N/A   Clear
2:55 PM 60.8 °F - 44.6 °F 55% 29.87 in 10.0 mi South 6.9 mph - N/A   Clear
3:15 PM 59.0 °F - 41.0 °F 51% 29.86 in 10.0 mi South 8.1 mph - N/A   Clear
3:35 PM 59.0 °F - 39.2 °F 48% 29.86 in 10.0 mi South 8.1 mph - N/A   Clear
3:55 PM 57.2 °F - 42.8 °F 59% 29.85 in 10.0 mi South 5.8 mph - N/A   Clear
4:15 PM 55.4 °F - 46.4 °F 72% 29.84 in 10.0 mi South 8.1 mph - N/A   Clear
4:36 PM 53.6 °F - 46.4 °F 77% 29.84 in 10.0 mi South 6.9 mph - N/A   Clear
4:55 PM 53.6 °F - 46.4 °F 77% 29.84 in 10.0 mi South 8.1 mph - N/A   Clear
5:16 PM 53.6 °F - 48.2 °F 82% 29.82 in 10.0 mi South 6.9 mph - N/A   Clear
5:36 PM 53.6 °F - 48.2 °F 82% 29.84 in 10.0 mi South 8.1 mph - N/A   Clear
5:55 PM 53.6 °F - 48.2 °F 82% 29.83 in 10.0 mi South 9.2 mph - N/A   Clear
6:15 PM 53.6 °F - 48.2 °F 82% 29.83 in 10.0 mi South 5.8 mph - N/A   Clear
6:35 PM 53.6 °F - 48.2 °F 82% 29.82 in 10.0 mi South 5.8 mph - N/A   Clear
6:55 PM 53.6 °F - 48.2 °F 82% 29.82 in 10.0 mi SSW 6.9 mph - N/A   Clear
7:15 PM 53.6 °F - 46.4 °F 77% 29.81 in 10.0 mi South 5.8 mph - N/A   Clear
7:36 PM 53.6 °F - 46.4 °F 77% 29.81 in 10.0 mi SSW 6.9 mph - N/A   Clear
7:55 PM 53.6 °F - 44.6 °F 72% 29.80 in 10.0 mi SW 8.1 mph - N/A   Clear
8:15 PM 55.4 °F - 42.8 °F 63% 29.80 in 10.0 mi SW 8.1 mph - N/A   Clear
8:35 PM 59.0 °F - 39.2 °F 48% 29.79 in 10.0 mi SW 11.5 mph 19.6 mph N/A   Clear
8:55 PM 59.0 °F - 39.2 °F 48% 29.78 in 10.0 mi SW 12.7 mph - N/A   Scattered Clouds
9:15 PM 60.8 °F - 39.2 °F 45% 29.78 in 10.0 mi WSW 12.7 mph 19.6 mph N/A   Mostly Cloudy
9:35 PM 60.8 °F - 39.2 °F 45% 29.77 in 10.0 mi WSW 10.4 mph - N/A   Overcast
9:55 PM 60.8 °F - 37.4 °F 42% 29.77 in 10.0 mi WSW 15.0 mph 20.7 mph N/A   Overcast
10:15 PM 60.8 °F - 39.2 °F 45% 29.77 in 10.0 mi WSW 15.0 mph 19.6 mph N/A   Overcast
10:35 PM 60.8 °F - 39.2 °F 45% 29.76 in 10.0 mi WSW 13.8 mph - N/A   Overcast
10:55 PM 60.8 °F - 39.2 °F 45% 29.76 in 10.0 mi West 11.5 mph - N/A   Mostly Cloudy
11:15 PM 59.0 °F - 39.2 °F 48% 29.76 in 10.0 mi West 10.4 mph - N/A   Scattered Clouds
11:35 PM 59.0 °F - 41.0 °F 51% 29.77 in 10.0 mi West 9.2 mph 16.1 mph N/A   Clear
11:55 PM 55.4 °F - 42.8 °F 63% 29.78 in 10.0 mi WNW 16.1 mph 19.6 mph N/A   Clear